Terminal Aerodrome Forecast
Issued by NWS

Home | Current Version | Previous Version | Graphics & Text | Print | Product List | Glossary On
Versions: 1 2 3 4 5 6 7 8 9 10 11 12 13 14 15 16 17 18 19 20 21 22 23 24 25 26 27 28 29 30 31 32 33
000
FTUS43 KLOT 261200 AAA
TAFMDW
TAF AMD
KMDW 261227Z 2612/2712 03011G18KT 1SM -SHSN BLSN OVC015
      TEMPO 2612/2615 1/2SM SHSN VV008
     FM261600 02012G18KT 4SM -SHSN BLSN OVC015
     FM261900 36012G18KT 6SM BLSN VCSH SCT020 BKN035
     FM262200 34012KT P6SM SCT035
     FM270200 33007KT P6SM FEW040=

USA.gov is the U.S. government's official web portal to all federal, state and local government web resources and services.